Regional Weather Roundup
Issued by NWS

Home | Current Version | Previous Version | Graphics & Text | Print | Product List | Glossary On
Versions: 1 2 3 4 5 6 7 8 9 10 11 12 13 14 15 16 17 18 19 20 21 22 23 24 25 26 27 28 29 30 31 32 33 34 35 36 37 38 39 40 41 42 43 44 45 46 47 48 49 50
560
ASUS45 KABQ 260410
RWRNM
NEW MEXICO REGIONAL WEATHER ROUNDUP
NATIONAL WEATHER SERVICE ALBUQUERQUE NM
1000 PM MDT SUN SEP 25 2016

NOTE: "FAIR" MEANS FEW OR NO CLOUDS BELOW 12,000 FEET AGL WITH NO
       SIGNIFICANT WEATHER OR OBSTRUCTIONS TO VISION.

      THIS PRODUCT IS RELEASED AS TWO VERSIONS.  ONE VERSION NEAR
      THE TOP OF THE HOUR CONTAINING PRELIMINARY DATA FROM ALBUQUERQUE
      AND OTHER STATIONS.  A FINAL VERSION WITH ADDITIONAL DATA IS
      ISSUED ABOUT 10 MINUTES AFTER THE HOUR.

NMZ501-503-504-510>518-260500-
NORTHWEST PLATEAU/NORTHCENTRAL MOUNTAINS

CITY           SKY/WX    TMP DP  RH WIND       PRES   REMARKS
FARMINGTON     FAIR      59  32  36 W7        30.34R
LOS ALAMOS     FAIR     N/A N/A N/A SW13G18   30.49R
SANTA FE       FAIR      56  35  45 S10       30.43R
TAOS           FAIR      52  28  40 SE9       30.48R
ANGEL FIRE     FAIR      36  32  83 CALM      30.58R

$$
NMZ402-403-502-505>509-260500-
WESTCENTRAL MOUNTAINS/SOUTHWEST MOUNTAINS

CITY           SKY/WX    TMP DP  RH WIND       PRES   REMARKS
GALLUP         FAIR      57  30  35 NE8       30.40R
SILVER CITY    FAIR      63  42  47 E12       30.31R

$$
NMZ407-409-411-412-260500-
SOUTHERN DESERTS

CITY           SKY/WX    TMP DP  RH WIND       PRES   REMARKS
DEMING         MOCLDY    68  45  43 E22G29    30.26R
LAS CRUCES     FAIR      65  43  44 SE9       30.28R
HOLLOMAN AFB   FAIR      68  42  39 E10       30.23R
ALAMOGORDO     FAIR      68  41  37 E18G32    30.24R
T OR C         FAIR      65  39  38 NE10      30.30R

$$
NMZ519>523-260500-
CENTRAL VALLEYS/CENTRAL HIGHLANDS

CITY           SKY/WX    TMP DP  RH WIND       PRES   REMARKS
ALBUQUERQUE    FAIR      64  35  34 E21       30.37R
DOUBLE EAGLE   CLEAR     61  37  41 E10       30.41R
MORIARTY ARPT  FAIR      52  34  50 CALM      30.46S
CLINES CORNERS FAIR      49  34  56 E8        30.49R
BELEN          NOT AVBL
SOCORRO        FAIR      65  36  34 CALM      30.35S

$$
NMZ524>526-539-540-260500-
SOUTHCENTRAL MOUNTAINS

CITY           SKY/WX    TMP DP  RH WIND       PRES   REMARKS
RUIDOSO        CLOUDY    54  39  58 E12       30.48S

$$
NMZ527>531-260500-
NORTHEAST HIGHLANDS/NORTHEAST PLAINS

CITY           SKY/WX    TMP DP  RH WIND       PRES   REMARKS
LAS VEGAS      FAIR      45  32  60 E8        30.51R
RATON          FAIR      50  32  50 NE5       30.48R
CLAYTON        FAIR      52  36  54 N6        30.43R

$$
NMZ532>537-260500-
EASTCENTRAL PLAINS

CITY           SKY/WX    TMP DP  RH WIND       PRES   REMARKS
TUCUMCARI      FAIR      56  34  43 NE10      30.37R
CANNON AFB     PTCLDY    53  44  72 NE7       30.37R
CLOVIS AIRPORT FAIR      50  39  66 NE7       30.37S

$$
NMZ028-029-538-260500-
SOUTHEAST PLAINS

CITY           SKY/WX    TMP DP  RH WIND       PRES   REMARKS
ROSWELL        CLOUDY    62  43  49 E3        30.34R
ARTESIA        CLOUDY    64  45  48 E5        30.34R
CARLSBAD       CLOUDY    61  52  72 N5        30.30R
HOBBS          MOCLDY    61  48  63 NE13G21   30.31S


$$




USA.gov is the U.S. government's official web portal to all federal, state and local government web resources and services.